This demonstration page uses our WeatherBlox Daily Observations layout. Learn more.

Hourly Observations for December 17, 2015

Temp ( °F °C ) Dew Point ( °F °C ) Humidity (%) Winds ( mph kmh ) Pressure ( in mb ) Visibility ( mi km ) Precip ( " mm )
12:15 am 00:15 Partly Cloudy 21 -6.2 17 -8.5 84 84 NW 5 7 30.09 1019 10 16.0934 0 0
12:35 am 00:35 Mostly Cloudy 20 -6.4 17 -8.4 86 86 NW 5 7 30.12 1020 10 16.0934 0 0
12:55 am 00:55 Cloudy 22 -5.5 18 -7.6 85 85 WNW 5 7 30.12 1020 10 16.0934 0 0
1:15 am 01:15 Cloudy 23 -5 19 -7.2 85 85 NW 7 11 30.12 1020 10 16.0934 0 0
1:35 am 01:35 Cloudy 23 -4.8 19 -7.1 84 84 NW 6 9 30.12 1020 10 16.0934 0 0
1:55 am 01:55 Cloudy 24 -4.7 19 -7 84 84 NW 7 11 30.12 1020 10 16.0934 0 0
2:15 am 02:15 Cloudy 24 -4.6 20 -6.8 85 85 NNW 5 7 30.09 1019 10 16.0934 0 0
2:35 am 02:35 Cloudy 24 -4.5 20 -6.7 85 85 NNW 7 11 30.12 1020 10 16.0934 0 0
2:55 am 02:55 Cloudy 24 -4.5 20 -6.7 85 85 N 6 9 30.12 1020 10 16.0934 0 0
3:15 am 03:15 Cloudy 24 -4.5 20 -6.6 85 85 N 6 9 30.12 1020 10 16.0934 0 0
3:35 am 03:35 Cloudy 24 -4.4 20 -6.5 85 85 NNW 5 7 30.12 1020 10 16.0934 0 0
3:55 am 03:55 Cloudy 24 -4.3 20 -6.5 85 85 NNW 5 7 30.12 1020 10 16.0934 0 0
4:15 am 04:15 Cloudy 24 -4.5 20 -6.6 85 85 NW 5 7 30.12 1020 10 16.0934 0 0
4:35 am 04:35 Cloudy 23 -5 19 -7 86 86 WNW 3 6 30.12 1020 10 16.0934 0 0
4:55 am 04:55 Cloudy 22 -5.3 19 -7.3 86 86 NNW 3 6 30.12 1020 10 16.0934 0 0
5:15 am 05:15 Partly Cloudy 22 -5.8 18 -7.6 87 87 W 5 7 30.15 1021 10 16.0934 0 0
5:35 am 05:35 Mostly Cloudy 22 -5.8 18 -7.6 87 87 W 5 7 30.15 1021 10 16.0934 0 0
5:55 am 05:55 Cloudy 22 -5.5 19 -7.5 86 86 WNW 5 7 30.15 1021 10 16.0934 0 0
6:15 am 06:15 Cloudy 22 -5.4 19 -7.2 87 87 NW 6 9 30.15 1021 10 16.0934 0 0
6:35 am 06:35 Cloudy 23 -5 19 -7 86 86 NW 6 9 30.15 1021 10 16.0934 0 0
6:55 am 06:55 Cloudy 23 -5 19 -7.1 85 85 NNW 7 11 30.18 1022 10 16.0934 0 0
7:15 am 07:15 Cloudy 23 -5.1 19 -7.5 83 83 N 8 13 30.18 1022 10 16.0934 0 0
7:35 am 07:35 Cloudy 23 -5 18 -8 80 80 N 7 11 30.18 1022 10 16.0934 0 0
7:55 am 07:55 Cloudy 23 -4.8 17 -8.2 77 77 N 9 15 30.21 1023 10 16.0934 0 0
8:15 am 08:15 Cloudy 23 -4.8 18 -8 79 79 N 9 15 30.21 1023 10 16.0934 0 0
8:35 am 08:35 Cloudy 23 -4.8 17 -8.6 75 75 N 10 17 30.21 1023 10 16.0934 0 0
8:55 am 08:55 Cloudy 23 -4.8 16 -9 73 73 N 10 17 30.21 1023 10 16.0934 0 0
9:15 am 09:15 Partly Cloudy 23 -4.8 17 -8.5 76 76 NNW 7 11 30.21 1023 10 16.0934 0 0
9:35 am 09:35 Sunny 24 -4.6 17 -8.4 75 75 NNW 6 9 30.21 1023 10 16.0934 0 0
9:55 am 09:55 Partly Cloudy 25 -4.1 18 -7.8 76 76 NW 8 13 30.24 1024 10 16.0934 0 0
10:15 am 10:15 Cloudy 25 -4.1 17 -8.1 74 74 NW 9 15 30.24 1024 10 16.0934 0 0
10:35 am 10:35 Cloudy 25 -4 18 -8 74 74 NNW 8 13 30.24 1024 10 16.0934 0 0
10:55 am 10:55 Cloudy 26 -3.5 18 -7.8 72 72 NNW 9 15 30.27 1025 10 16.0934 0 0
11:15 am 11:15 Mostly Cloudy 26 -3.4 18 -8 71 71 NNW 14 22 30.27 1025 10 16.0934 0 0
11:35 am 11:35 Partly Cloudy 26 -3.3 17 -8.4 68 68 N 9 15 30.27 1025 10 16.0934 0 0
11:55 am 11:55 Sunny 26 -3.1 17 -8.1 69 69 NNW 12 19 30.27 1025 10 16.0934 0 0
12:15 pm 12:15 Partly Cloudy 26 -3.1 17 -8.5 67 67 NNW 12 19 30.27 1025 10 16.0934 0 0
12:35 pm 12:35 Partly Cloudy 27 -3 18 -7.9 69 69 NW 12 19 30.24 1024 10 16.0934 0 0
12:55 pm 12:55 Mostly Cloudy 26 -3.3 17 -8.4 68 68 NW 13 20 30.24 1024 10 16.0934 0 0
1:15 pm 13:15 Cloudy 26 -3.3 16 -8.9 66 66 NNW 12 19 30.24 1024 10 16.0934 0 0
1:35 pm 13:35 Cloudy 26 -3.5 15 -9.2 65 65 NNW 13 20 30.24 1024 10 16.0934 0 0
1:55 pm 13:55 Partly Cloudy 26 -3.2 15 -9.2 64 64 N 12 19 30.24 1024 10 16.0934 0 0
2:15 pm 14:15 Sunny 26 -3.1 15 -9.4 62 62 NNW 12 19 30.24 1024 10 16.0934 0 0
2:35 pm 14:35 Sunny 27 -2.8 15 -9.3 61 61 NW 10 17 30.24 1024 10 16.0934 0 0
2:55 pm 14:55 Sunny 27 -2.7 15 -9.3 61 61 NW 10 17 30.24 1024 10 16.0934 0 0
3:15 pm 15:15 Sunny 27 -2.6 15 -9.3 60 60 NNW 13 20 30.24 1024 10 16.0934 0 0
3:35 pm 15:35 Sunny 27 -2.6 16 -8.8 63 63 NW 13 20 30.24 1024 10 16.0934 0 0
3:55 pm 15:55 Sunny 27 -2.6 16 -8.8 63 63 NW 13 20 30.24 1024 10 16.0934 0 0
4:15 pm 16:15 Sunny 27 -2.6 17 -8.2 66 66 WNW 8 13 30.24 1024 10 16.0934 0 0
4:35 pm 16:35 Sunny 27 -3 17 -8.2 68 68 WNW 7 11 30.24 1024 10 16.0934 0 0
4:55 pm 16:55 Sunny 26 -3.2 17 -8.5 67 67 WNW 6 9 30.24 1024 10 16.0934 0 0
5:15 pm 17:15 Clear 25 -3.9 17 -8.6 70 70 W 7 11 30.27 1025 10 16.0934 0 0
5:35 pm 17:35 Clear 23 -4.9 16 -8.7 75 75 W 6 9 30.27 1025 10 16.0934 0 0
5:55 pm 17:55 Clear 22 -5.5 16 -9 77 77 W 7 11 30.27 1025 10 16.0934 0 0
6:15 pm 18:15 Clear 21 -6 15 -9.2 78 78 W 6 9 30.3 1026 10 16.0934 0 0
6:35 pm 18:35 Clear 21 -6.2 15 -9.5 78 78 W 7 11 30.3 1026 10 16.0934 0 0
6:55 pm 18:55 Clear 21 -6 15 -9.3 78 78 W 8 13 30.3 1026 10 16.0934 0 0
7:15 pm 19:15 Clear 21 -6 15 -9.5 77 77 W 7 11 30.3 1026 10 16.0934 0 0
7:35 pm 19:35 Clear 22 -5.6 16 -9.1 77 77 W 9 15 30.3 1026 10 16.0934 0 0
7:55 pm 19:55 Clear 21 -6 15 -9.5 77 77 W 8 13 30.3 1026 10 16.0934 0 0
8:15 pm 20:15 Clear 20 -6.8 14 -9.8 79 79 W 9 15 30.3 1026 10 16.0934 0 0
8:35 pm 20:35 Clear 20 -6.8 15 -9.7 80 80 W 8 13 30.3 1026 10 16.0934 0 0
8:55 pm 20:55 Clear 19 -7.3 14 -10 81 81 W 8 13 30.3 1026 10 16.0934 0 0
9:15 pm 21:15 Clear 19 -7.1 15 -9.7 82 82 W 9 15 30.3 1026 10 16.0934 0 0
9:35 pm 21:35 Clear 19 -7.3 14 -10 81 81 W 8 13 30.3 1026 10 16.0934 0 0
9:55 pm 21:55 Clear 18 -7.6 14 -10.1 82 82 W 7 11 30.3 1026 10 16.0934 0 0
10:15 pm 22:15 Clear 18 -8 13 -10.5 82 82 W 8 13 30.3 1026 10 16.0934 0 0
10:35 pm 22:35 Clear 17 -8.3 13 -10.7 83 83 W 9 15 30.3 1026 10 16.0934 0 0
10:55 pm 22:55 Clear 17 -8.1 13 -10.7 82 82 W 10 17 30.3 1026 10 16.0934 0 0
11:15 pm 23:15 Clear 17 -8.1 12 -11 80 80 W 10 17 30.3 1026 10 16.0934 0 0
11:35 pm 23:35 Clear 17 -8.3 12 -11.2 80 80 W 10 17 30.3 1026 10 16.0934 0 0
11:55 pm 23:55 Clear 17 -8.4 11 -11.5 79 79 W 12 19 30.3 1026 10 16.0934 0 0

Powered by AerisWeather